LOWW

Vienna International/Schwechat

Airport
ICAO code
LOWW
IATA Code
VIE
Summary
ICAO Region
EUR
ICAO Territory
Location

Schwechat, Vienna

Serving
Vienna
Elevation
600 ft
Coordinates
48° 6' 37" N , 16° 34' 11" E
KCC
Metar
Observation
LOWW 271450Z 07003KT 9999 FEW022 06/02 Q1027 NOSIG
Station
Wien / Schwechat-Flughafen
Date/Time
2022-11-27 14:50:00
Wind direction
70°
Wind speed
03 kts
Lowest cloud amount
few clouds
Temperature
6°C
Dew point
2°C
Humidity
75%
QNH
1027 hPa
Weather condition
n/a

International airport serving Vienna, capital of Austria.

Climatology

Humid Continental climate (Köppen climate classification Dfb)

Runways

Designator Length Width Surface Rops
11/29 3500 45 ASP Yes/Yes
16/34 3600 45 ASP Yes/Yes

Airport map

Aerial View

Airport accidents

SKYbrary Partners:

Safety knowledge contributed by: